N889LS KLAS-KDAL

Flight info

Callsign N889LS
Flight time 1h 56m
Altitude 39000
Route NIITZ4 SSKEE ABQ CRTTR TXO TURKI JFRYE5
Aircraft B737/M-SDE2E3FGHIRWXY/LB1

Departure

Time 2026-04-30 20:56
Airport Harry Reid International Airport (KLAS)

Arrival

Time 2026-04-30 22:53
Airport Dallas Love Field (KDAL)
Time Latitude Longitude Altitude Speed Heading
2026-04-30 20:33 36.08891 -115.16623 2149 ft 0 kts
2026-04-30 20:52 36.08916 -115.16608 2150 ft 9 kts 38°
2026-04-30 20:53 36.08932 -115.16518 2142 ft 15 kts 118°
2026-04-30 20:53 36.08837 -115.16532 2145 ft 15 kts 205°
2026-04-30 20:53 36.08733 -115.16591 2149 ft 17 kts 205°
2026-04-30 20:54 36.08488 -115.16732 2156 ft 26 kts 205°
2026-04-30 20:54 36.08317 -115.16829 2158 ft 26 kts 204°
2026-04-30 20:54 36.08157 -115.16921 2164 ft 24 kts 205°
2026-04-30 20:55 36.07864 -115.17088 2169 ft 25 kts 200°
2026-04-30 20:55 36.07675 -115.17109 2167 ft 28 kts 150°
2026-04-30 20:55 36.07639 -115.16896 2163 ft 14 kts 90°
2026-04-30 20:56 36.07638 -115.16422 2147 ft 93 kts 90°
2026-04-30 20:56 36.07641 -115.15325 2128 ft 157 kts 90°
2026-04-30 20:56 36.07641 -115.12501 3697 ft 167 kts 85°
2026-04-30 20:57 36.07644 -115.10947 4416 ft 198 kts 85°
2026-04-30 20:57 36.07651 -115.09062 4831 ft 239 kts 88°
2026-04-30 20:57 36.07460 -115.06943 5768 ft 258 kts 98°
2026-04-30 20:58 36.06713 -115.02378 7829 ft 280 kts 98°
2026-04-30 20:58 36.06324 -114.99986 8896 ft 289 kts 99°
2026-04-30 20:58 36.05932 -114.97528 10052 ft 293 kts 97°
2026-04-30 20:58 36.05533 -114.94993 10839 ft 311 kts 98°
2026-04-30 20:59 36.04633 -114.89221 11789 ft 362 kts 98°
2026-04-30 20:59 36.04138 -114.86152 12614 ft 364 kts 99°
2026-04-30 21:00 36.03200 -114.80013 13041 ft 366 kts 95°
2026-04-30 21:00 36.02826 -114.73658 14770 ft 377 kts 90°
2026-04-30 21:01 36.02471 -114.67078 16505 ft 392 kts 92°
2026-04-30 21:01 36.02260 -114.63680 17338 ft 399 kts 92°
2026-04-30 21:01 36.01811 -114.56719 18874 ft 411 kts 92°
2026-04-30 21:02 36.01582 -114.53196 19734 ft 413 kts 92°
2026-04-30 21:02 36.01353 -114.49652 20534 ft 416 kts 92°
2026-04-30 21:02 36.01120 -114.46059 21294 ft 421 kts 91°
2026-04-30 21:02 36.00888 -114.42483 22006 ft 425 kts 91°
2026-04-30 21:03 36.00569 -114.38787 22747 ft 431 kts 95°
2026-04-30 21:03 36.00118 -114.35147 23432 ft 436 kts 96°
2026-04-30 21:03 35.99601 -114.31435 23989 ft 441 kts 97°
2026-04-30 21:03 35.99065 -114.27693 24554 ft 445 kts 97°
2026-04-30 21:04 35.98527 -114.23906 25123 ft 449 kts 97°
2026-04-30 21:04 35.97996 -114.20084 25663 ft 453 kts 97°
2026-04-30 21:04 35.96942 -114.12331 26702 ft 462 kts 97°
2026-04-30 21:05 35.96412 -114.08399 27222 ft 465 kts 97°
2026-04-30 21:05 35.95879 -114.04434 27650 ft 471 kts 97°
2026-04-30 21:05 35.95338 -114.00418 28060 ft 476 kts 97°
2026-04-30 21:05 35.94799 -113.96426 28584 ft 478 kts 98°
2026-04-30 21:06 35.94247 -113.92356 29032 ft 482 kts 97°
2026-04-30 21:06 35.93688 -113.88254 29469 ft 486 kts 98°
2026-04-30 21:06 35.93127 -113.84156 30167 ft 482 kts 98°
2026-04-30 21:06 35.92569 -113.80093 30773 ft 479 kts 98°
2026-04-30 21:07 35.92013 -113.76039 31254 ft 480 kts 98°
2026-04-30 21:07 35.91445 -113.71978 31821 ft 477 kts 99°
2026-04-30 21:07 35.90889 -113.67952 32449 ft 474 kts 98°
2026-04-30 21:07 35.90341 -113.63947 32940 ft 473 kts 98°
2026-04-30 21:08 35.89790 -113.59940 33385 ft 474 kts 99°
2026-04-30 21:08 35.89235 -113.55934 33847 ft 473 kts 99°
2026-04-30 21:08 35.88678 -113.51940 34265 ft 472 kts 99°
2026-04-30 21:08 35.88120 -113.48011 34699 ft 470 kts 99°
2026-04-30 21:09 35.87549 -113.44036 35089 ft 470 kts 99°
2026-04-30 21:09 35.86977 -113.40062 35441 ft 470 kts 100°
2026-04-30 21:09 35.86403 -113.36088 35786 ft 471 kts 100°
2026-04-30 21:09 35.85829 -113.32115 36166 ft 469 kts 100°
2026-04-30 21:10 35.85256 -113.28153 36528 ft 469 kts 100°
2026-04-30 21:10 35.84685 -113.24213 37002 ft 465 kts 100°
2026-04-30 21:10 35.84115 -113.20287 37386 ft 464 kts 100°
2026-04-30 21:10 35.83546 -113.16372 37675 ft 465 kts 100°
2026-04-30 21:11 35.82974 -113.12450 38023 ft 464 kts 100°
2026-04-30 21:11 35.82402 -113.08534 38353 ft 464 kts 101°
2026-04-30 21:11 35.81835 -113.04663 38583 ft 466 kts 101°
2026-04-30 21:11 35.81258 -113.00736 38790 ft 466 kts 101°
2026-04-30 21:12 35.80679 -112.96799 39042 ft 466 kts 101°
2026-04-30 21:12 35.80099 -112.92872 39290 ft 466 kts 101°
2026-04-30 21:12 35.79518 -112.88939 39486 ft 466 kts 101°
2026-04-30 21:12 35.78935 -112.85005 39685 ft 467 kts 101°
2026-04-30 21:13 35.78350 -112.81069 39908 ft 467 kts 101°
2026-04-30 21:13 35.77765 -112.77135 40128 ft 467 kts 102°
2026-04-30 21:13 35.77177 -112.73194 40231 ft 470 kts 102°
2026-04-30 21:13 35.76583 -112.69223 40387 ft 471 kts 102°
2026-04-30 21:14 35.75988 -112.65253 40632 ft 470 kts 102°
2026-04-30 21:14 35.75394 -112.61293 40864 ft 470 kts 102°
2026-04-30 21:14 35.74202 -112.53360 40904 ft 478 kts 102°
2026-04-30 21:15 35.72976 -112.45241 40910 ft 486 kts 103°
2026-04-30 21:15 35.71730 -112.37022 40906 ft 491 kts 103°
2026-04-30 21:16 35.70469 -112.28746 40911 ft 493 kts 103°
2026-04-30 21:16 35.69201 -112.20453 40902 ft 493 kts 103°
2026-04-30 21:17 35.67925 -112.12152 40909 ft 492 kts 103°
2026-04-30 21:17 35.66644 -112.03867 40906 ft 492 kts 104°
2026-04-30 21:18 35.65368 -111.95647 40908 ft 492 kts 104°
2026-04-30 21:18 35.64082 -111.87389 40888 ft 492 kts 104°
2026-04-30 21:19 35.62863 -111.79109 40888 ft 493 kts 102°
2026-04-30 21:19 35.62032 -111.70707 40882 ft 495 kts 100°
2026-04-30 21:20 35.61296 -111.62288 40883 ft 496 kts 100°
2026-04-30 21:20 35.60515 -111.53855 40880 ft 496 kts 100°
2026-04-30 21:21 35.59690 -111.45434 40868 ft 497 kts 101°
2026-04-30 21:22 35.58427 -111.32834 40855 ft 497 kts 101°
2026-04-30 21:23 35.56719 -111.15973 40849 ft 497 kts 101°
2026-04-30 21:23 35.55423 -111.03312 40835 ft 499 kts 102°
2026-04-30 21:24 35.54548 -110.94842 40841 ft 500 kts 102°
2026-04-30 21:24 35.53666 -110.86367 40838 ft 501 kts 102°
2026-04-30 21:25 35.52328 -110.73613 40828 ft 503 kts 102°
2026-04-30 21:26 35.50976 -110.60859 40834 ft 505 kts 102°
2026-04-30 21:27 35.49601 -110.48016 40833 ft 506 kts 102°
2026-04-30 21:27 35.48833 -110.40893 40822 ft 507 kts 103°
2026-04-30 21:28 35.47433 -110.28025 40813 ft 507 kts 103°
2026-04-30 21:29 35.46018 -110.15148 40827 ft 508 kts 103°
2026-04-30 21:30 35.43621 -109.93638 40815 ft 510 kts 103°
2026-04-30 21:31 35.41181 -109.72084 40820 ft 514 kts 103°
2026-04-30 21:32 35.39686 -109.59048 40807 ft 515 kts 103°
2026-04-30 21:32 35.38677 -109.50324 40799 ft 516 kts 103°
2026-04-30 21:33 35.37160 -109.37304 40789 ft 517 kts 104°
2026-04-30 21:34 35.36132 -109.28554 40804 ft 518 kts 104°
2026-04-30 21:34 35.34579 -109.15442 40823 ft 518 kts 104°
2026-04-30 21:35 35.33536 -109.06702 40819 ft 519 kts 104°
2026-04-30 21:35 35.32492 -108.98016 40853 ft 519 kts 104°
2026-04-30 21:36 35.31436 -108.89280 40877 ft 519 kts 104°
2026-04-30 21:37 35.29302 -108.71781 40737 ft 520 kts 104°
2026-04-30 21:37 35.28222 -108.63013 40750 ft 521 kts 104°
2026-04-30 21:38 35.27141 -108.54289 40749 ft 522 kts 105°
2026-04-30 21:38 35.26045 -108.45496 40751 ft 523 kts 105°
2026-04-30 21:39 35.24939 -108.36680 40732 ft 524 kts 105°
2026-04-30 21:39 35.23823 -108.27830 40788 ft 524 kts 105°
2026-04-30 21:40 35.22707 -108.19023 40858 ft 524 kts 105°
2026-04-30 21:40 35.21589 -108.10268 40939 ft 525 kts 105°
2026-04-30 21:41 35.20452 -108.01426 40989 ft 526 kts 105°
2026-04-30 21:41 35.19312 -107.92593 41007 ft 526 kts 105°
2026-04-30 21:42 35.18163 -107.83749 41000 ft 527 kts 105°
2026-04-30 21:42 35.17585 -107.79326 40741 ft 527 kts 105°
2026-04-30 21:42 35.17006 -107.74902 40725 ft 527 kts 105°
2026-04-30 21:43 35.15843 -107.66059 40724 ft 526 kts 106°
2026-04-30 21:43 35.14684 -107.57302 40739 ft 525 kts 105°
2026-04-30 21:44 35.13514 -107.48501 40739 ft 525 kts 105°
2026-04-30 21:44 35.12337 -107.39699 40719 ft 525 kts 105°
2026-04-30 21:45 35.11155 -107.30907 40729 ft 525 kts 105°
2026-04-30 21:45 35.09964 -107.22104 40737 ft 525 kts 105°
2026-04-30 21:46 35.08766 -107.13303 40724 ft 526 kts 105°
2026-04-30 21:46 35.07561 -107.04491 40721 ft 526 kts 105°
2026-04-30 21:47 35.06359 -106.95749 40735 ft 525 kts 105°
2026-04-30 21:47 35.05147 -106.86978 40952 ft 525 kts 105°
2026-04-30 21:48 35.03928 -106.78205 40965 ft 524 kts 105°
2026-04-30 21:48 35.02708 -106.69445 40971 ft 523 kts 106°
2026-04-30 21:49 35.01483 -106.60690 40966 ft 524 kts 106°
2026-04-30 21:49 35.00250 -106.51927 40963 ft 524 kts 106°
2026-04-30 21:50 34.99012 -106.43172 40924 ft 524 kts 106°
2026-04-30 21:50 34.97765 -106.34397 40920 ft 525 kts 106°
2026-04-30 21:51 34.96507 -106.25604 40864 ft 527 kts 106°
2026-04-30 21:51 34.95237 -106.16770 40848 ft 530 kts 106°
2026-04-30 21:52 34.93964 -106.07959 40852 ft 532 kts 106°
2026-04-30 21:52 34.92671 -105.99052 40868 ft 534 kts 106°
2026-04-30 21:53 34.91366 -105.90110 40894 ft 536 kts 106°
2026-04-30 21:53 34.90051 -105.81151 40887 ft 538 kts 106°
2026-04-30 21:54 34.88726 -105.72172 40917 ft 538 kts 106°
2026-04-30 21:54 34.87395 -105.63196 40917 ft 538 kts 106°
2026-04-30 21:55 34.86058 -105.54224 40930 ft 538 kts 106°
2026-04-30 21:55 34.84722 -105.45311 40920 ft 538 kts 106°
2026-04-30 21:56 34.83373 -105.36360 40919 ft 537 kts 107°
2026-04-30 21:56 34.82021 -105.27429 40918 ft 536 kts 106°
2026-04-30 21:57 34.80662 -105.18507 40904 ft 536 kts 106°
2026-04-30 21:57 34.79295 -105.09583 40892 ft 536 kts 106°
2026-04-30 21:58 34.77921 -105.00652 40897 ft 537 kts 107°
2026-04-30 21:58 34.76551 -104.91792 40944 ft 538 kts 106°
2026-04-30 21:59 34.75159 -104.82835 40955 ft 540 kts 106°
2026-04-30 22:00 34.73050 -104.69344 40980 ft 543 kts 106°
2026-04-30 22:00 34.70917 -104.55793 40955 ft 545 kts 106°
2026-04-30 22:01 34.69514 -104.46740 40916 ft 546 kts 104°
2026-04-30 22:01 34.68416 -104.37564 40890 ft 548 kts 102°
2026-04-30 22:02 34.67430 -104.28448 40865 ft 548 kts 102°
2026-04-30 22:02 34.66390 -104.19288 40833 ft 547 kts 102°
2026-04-30 22:03 34.65302 -104.10146 40860 ft 545 kts 103°
2026-04-30 22:03 34.64200 -104.01044 40878 ft 545 kts 103°
2026-04-30 22:04 34.63094 -103.91940 40888 ft 544 kts 103°
2026-04-30 22:05 34.61431 -103.78298 40903 ft 544 kts 103°
2026-04-30 22:05 34.60315 -103.69214 40908 ft 544 kts 103°
2026-04-30 22:06 34.59188 -103.60109 40931 ft 545 kts 103°
2026-04-30 22:06 34.57487 -103.46453 40944 ft 546 kts 102°
2026-04-30 22:07 34.56350 -103.37396 40956 ft 546 kts 103°
2026-04-30 22:07 34.55197 -103.28283 40988 ft 546 kts 103°
2026-04-30 22:08 34.54037 -103.19164 41016 ft 547 kts 103°
2026-04-30 22:08 34.52870 -103.10042 41007 ft 547 kts 103°
2026-04-30 22:09 34.51697 -103.00933 41019 ft 547 kts 103°
2026-04-30 22:09 34.50517 -102.91815 41026 ft 547 kts 103°
2026-04-30 22:10 34.49334 -102.82700 41025 ft 547 kts 102°
2026-04-30 22:10 34.48337 -102.73539 41030 ft 549 kts 100°
2026-04-30 22:11 34.47000 -102.59781 41011 ft 549 kts 100°
2026-04-30 22:12 34.46065 -102.50596 41012 ft 549 kts 101°
2026-04-30 22:12 34.45102 -102.41407 41008 ft 549 kts 101°
2026-04-30 22:13 34.44129 -102.32227 41006 ft 549 kts 100°
2026-04-30 22:13 34.43152 -102.23052 41008 ft 549 kts 100°
2026-04-30 22:14 34.42335 -102.15422 41006 ft 549 kts 100°
2026-04-30 22:14 34.41348 -102.06257 41003 ft 549 kts 101°
2026-04-30 22:15 34.40191 -101.95599 40972 ft 549 kts 101°
2026-04-30 22:15 34.39350 -101.87917 41025 ft 548 kts 101°
2026-04-30 22:16 34.38344 -101.78768 41031 ft 548 kts 101°
2026-04-30 22:17 34.36315 -101.60516 41043 ft 549 kts 101°
2026-04-30 22:17 34.34764 -101.46729 41035 ft 550 kts 101°
2026-04-30 22:18 34.33205 -101.33019 41029 ft 551 kts 101°
2026-04-30 22:19 34.31625 -101.19250 41029 ft 551 kts 100°
2026-04-30 22:20 34.30028 -101.05482 41026 ft 551 kts 100°
2026-04-30 22:20 34.28412 -100.91714 41031 ft 551 kts 100°
2026-04-30 22:21 34.27326 -100.82534 41022 ft 551 kts 100°
2026-04-30 22:21 34.26235 -100.73371 40977 ft 551 kts 101°
2026-04-30 22:22 34.25138 -100.64209 41011 ft 550 kts 101°
2026-04-30 22:22 34.24044 -100.55129 41020 ft 550 kts 101°
2026-04-30 22:23 34.22934 -100.45984 41016 ft 550 kts 101°
2026-04-30 22:23 34.21817 -100.36827 41012 ft 550 kts 101°
2026-04-30 22:24 34.20693 -100.27671 41023 ft 550 kts 101°
2026-04-30 22:24 34.19326 -100.18594 41011 ft 549 kts 105°
2026-04-30 22:25 34.17660 -100.09589 41010 ft 548 kts 106°
2026-04-30 22:25 34.15989 -100.00656 41008 ft 549 kts 106°
2026-04-30 22:26 34.13534 -99.87140 40998 ft 550 kts 105°
2026-04-30 22:27 34.11905 -99.78121 40992 ft 550 kts 105°
2026-04-30 22:27 34.09440 -99.64597 40941 ft 550 kts 105°
2026-04-30 22:28 34.06959 -99.51098 40978 ft 549 kts 106°
2026-04-30 22:29 34.03648 -99.33199 40983 ft 548 kts 106°
2026-04-30 22:31 33.95298 -99.03205 40962 ft 513 kts 116°
2026-04-30 22:32 33.91654 -98.91675 40971 ft 477 kts 116°
2026-04-30 22:32 33.89269 -98.84137 40984 ft 489 kts 117°
2026-04-30 22:33 33.85569 -98.72462 41029 ft 502 kts 116°
2026-04-30 22:33 33.83076 -98.64593 41025 ft 502 kts 116°
2026-04-30 22:34 33.79374 -98.52955 39109 ft 505 kts 117°
2026-04-30 22:35 33.76800 -98.44918 36290 ft 531 kts 116°
2026-04-30 22:36 33.71361 -98.27852 30610 ft 553 kts 115°
2026-04-30 22:36 33.69989 -98.23545 29158 ft 551 kts 115°
2026-04-30 22:37 33.65953 -98.10920 25106 ft 525 kts 115°
2026-04-30 22:37 33.64654 -98.06872 23923 ft 513 kts 115°
2026-04-30 22:37 33.62142 -97.99072 21367 ft 489 kts 115°
2026-04-30 22:38 33.59759 -97.91694 19074 ft 465 kts 115°
2026-04-30 22:38 33.57465 -97.84614 17971 ft 439 kts 115°
2026-04-30 22:39 33.56370 -97.81238 17354 ft 431 kts 115°
2026-04-30 22:39 33.53179 -97.71440 15581 ft 410 kts 114°
2026-04-30 22:40 33.50133 -97.62106 13894 ft 393 kts 113°
2026-04-30 22:41 33.47195 -97.53112 12155 ft 379 kts 113°
2026-04-30 22:41 33.45235 -97.47400 11070 ft 365 kts 123°
2026-04-30 22:42 33.38343 -97.39968 9885 ft 314 kts 147°
2026-04-30 22:43 33.34985 -97.36768 9323 ft 305 kts 146°
2026-04-30 22:43 33.31679 -97.33592 8784 ft 304 kts 145°
2026-04-30 22:44 33.28429 -97.30453 8258 ft 297 kts 145°
2026-04-30 22:45 33.22122 -97.24354 7236 ft 287 kts 144°
2026-04-30 22:45 33.19039 -97.21376 6736 ft 283 kts 144°
2026-04-30 22:46 33.16007 -97.18453 6231 ft 280 kts 144°
2026-04-30 22:47 33.10019 -97.12679 5243 ft 272 kts 141°
2026-04-30 22:47 33.07100 -97.09870 4760 ft 265 kts 140°
2026-04-30 22:48 33.04277 -97.07145 4277 ft 257 kts 139°
2026-04-30 22:49 33.00053 -97.03089 3583 ft 257 kts 138°
2026-04-30 22:49 32.96153 -96.99178 2930 ft 232 kts 132°
2026-04-30 22:50 32.92092 -96.94451 2196 ft 170 kts 130°
2026-04-30 22:51 32.90447 -96.92534 1985 ft 162 kts 129°
2026-04-30 22:51 32.88843 -96.90665 1594 ft 150 kts 130°
2026-04-30 22:52 32.88136 -96.89842 1372 ft 134 kts 130°
2026-04-30 22:52 32.86832 -96.88306 1041 ft 135 kts 129°
2026-04-30 22:53 32.85490 -96.86761 641 ft 130 kts 133°
2026-04-30 22:53 32.84514 -96.85629 479 ft 32 kts 135°
2026-04-30 22:53 32.84482 -96.85531 480 ft 12 kts 49°
2026-04-30 22:54 32.84627 -96.85574 482 ft 13 kts 317°
2026-04-30 22:55 32.84846 -96.85756 483 ft 16 kts 316°
2026-04-30 22:55 32.84995 -96.85914 476 ft 8 kts 354°
2026-04-30 22:56 32.85020 -96.85820 483 ft 10 kts 145°
2026-04-30 22:56 32.84997 -96.85766 478 ft 0 kts 38°